This demonstration page uses our WeatherBlox Daily Observations layout. Learn more.

Left ArrowRight Arrow

41.12389, -100.76542

Hourly Observations for November 3, 2016

Temp ( °F °C ) Dew Point ( °F °C ) Humidity (%) Winds ( mph kmh ) Pressure ( in mb ) Visibility ( mi km ) Precip ( " mm )
12:53 am 00:53 Clear 37 2.8 33 0.6 86 86 Calm 30.33 1027 10 16 0.00 0.00
1:53 am 01:53 Clear 36 2.2 32 0 86 86 Calm 30.33 1027 10 16 0.00 0.00
2:06 am 02:06 Clear with Mist and Fog 36 2 32 0 87 87 NW 3 6 30.42 1030 2 3 0.00 0.00
2:20 am 02:20 Clear with Mist and Fog 34 1 30 -1 87 87 NW 6 9 30.42 1030 3 5 0.00 0.00
2:27 am 02:27 Clear with Mist and Fog 34 1.1 32 0 92 92 NW 6 9 30.42 1030 2 3 0.00 0.00
2:43 am 02:43 Clear with Mist and Fog 34 1.1 31 -0.6 89 89 WNW 3 6 30.42 1030 3 5 0.00 0.00
2:53 am 02:53 Clear with Mist and Fog 35 1.7 32 0 89 89 WNW 3 6 30.34 1028 5 8 0.00 0.00
3:07 am 03:07 Clear with Mist and Fog 36 2 32 0 87 87 NW 5 7 30.42 1030 3 4 0.00 0.00
3:15 am 03:15 Clear with Mist and Fog 34 1.1 32 0 92 92 NNW 5 7 30.42 1030 6 10 0.00 0.00
3:42 am 03:42 Clear with Mist and Fog 36 2 32 0 87 87 NW 3 6 30.45 1031 3 4 0.00 0.00
3:53 am 03:53 Clear with Mist and Fog 34 1.1 32 0 92 92 WNW 5 7 30.35 1028 2 3 0.00 0.00
4:04 am 04:04 Clear with Mist and Fog 34 1 32 0 93 93 NW 3 6 30.45 1031 4 6 0.00 0.00
4:42 am 04:42 Clear with Mist and Fog 34 1 30 -1 87 87 NW 5 7 30.45 1031 2 3 0.00 0.00
4:51 am 04:51 Clear with Mist and Fog 32 0 30 -1 93 93 NW 6 9 30.48 1032 3 4 0.00 0.00
4:53 am 04:53 Clear with Mist and Fog 33 0.6 31 -0.6 92 92 NW 6 9 30.36 1028 3 5 0.00 0.00
5:53 am 05:53 Clear with Mist and Fog 33 0.6 31 -0.6 92 92 NNW 6 9 30.37 1028 4 6 0.00 0.00
6:16 am 06:16 Clear with Mist and Fog 34 1 30 -1 87 87 WNW 6 9 30.45 1031 3 4 0.00 0.00
6:34 am 06:34 Clear with Mist and Fog 31 -0.6 29 -1.7 92 92 WNW 3 6 30.48 1032 6 10 0.00 0.00
6:53 am 06:53 Clear with Mist and Fog 32 0 30 -1.1 92 92 NW 7 11 30.40 1029 6 10 0.00 0.00
7:32 am 07:32 Clear with Mist and Fog 30 -1.1 28 -2.2 92 92 NW 6 9 30.48 1032 3 4 0.00 0.00
7:43 am 07:43 Clear with Mist and Fog 30 -1 28 -2 93 93 NW 7 11 30.50 1033 3 5 0.00 0.00
7:53 am 07:53 Clear with Mist and Fog 31 -0.6 30 -1.1 96 96 NW 5 7 30.42 1030 3 5 0.00 0.00
8:13 am 08:13 Clear with Mist and Fog 30 -1 30 -1 100 100 NNW 5 7 30.50 1033 2 3 0.00 0.00
8:26 am 08:26 Sunny with Mist and Fog 31 -0.6 29 -1.7 92 92 NW 5 7 30.50 1033 3 5 0.00 0.00
8:46 am 08:46 Sunny with Mist and Fog 34 1 30 -1 87 87 NW 7 11 30.48 1032 3 4 0.00 0.00
8:53 am 08:53 Sunny with Mist and Fog 34 1.1 31 -0.6 89 89 NW 7 11 30.43 1031 3 4 0.00 0.00
9:44 am 09:44 Sunny with Mist and Fog 41 5 37 3 87 87 NW 5 7 30.48 1032 4 6 0.00 0.00
9:53 am 09:53 Sunny with Mist and Fog 42 5.6 38 3.3 85 85 NW 6 9 30.44 1031 4 6 0.00 0.00
10:53 am 10:53 Sunny 51 10.6 38 3.3 61 61 WNW 7 11 30.43 1031 10 16 0.00 0.00
11:53 am 11:53 Sunny 58 14.4 39 3.9 50 50 W 7 11 30.42 1030 10 16 0.00 0.00
12:53 pm 12:53 Sunny 66 18.9 40 4.4 39 39 W 6 9 30.39 1029 10 16 0.00 0.00
1:53 pm 13:53 Sunny 71 21.7 37 2.8 29 29 W 12 19 30.36 1028 10 16 0.00 0.00
2:53 pm 14:53 Sunny 73 22.8 36 2.2 26 26 W 13 20 30.35 1028 10 16 0.00 0.00
3:53 pm 15:53 Sunny 72 22.2 36 2.2 27 27 W 14 22 30.35 1028 10 16 0.00 0.00
4:53 pm 16:53 Sunny 72 22.2 36 2.2 27 27 W 10 17 30.35 1028 10 16 0.00 0.00
5:53 pm 17:53 Sunny 67 19.4 38 3.3 35 35 W 6 9 30.35 1028 10 16 0.00 0.00
6:53 pm 18:53 Clear 54 12.2 38 3.3 55 55 Calm 30.38 1029 10 16 0.00 0.00
7:53 pm 19:53 Clear 49 9.4 36 2.2 61 61 Calm 30.40 1030 10 16 0.00 0.00
8:53 pm 20:53 Clear 45 7.2 34 1.1 66 66 Calm 30.41 1030 10 16 0.00 0.00
9:53 pm 21:53 Clear 40 4.4 33 0.6 77 77 Calm 30.42 1030 10 16 0.00 0.00
10:53 pm 22:53 Clear 38 3.3 33 0.6 83 83 NW 3 6 30.41 1030 10 16 0.00 0.00
11:53 pm 23:53 Clear 39 3.9 33 0.6 79 79 Calm 30.40 1030 10 16 0.00 0.00

Powered by AerisWeather